Météo par heure à Alihanmahi

Ce jour, 13 Mai, Jeudi

Heure Température Précipitation Vent Pression Humidité
00:00 +9°C° 0 mm 3 m/s 629 mmHg 46%
01:00 +10°C° 0 mm 3 m/s 629 mmHg 45%
02:00 +10°C° 0 mm 3 m/s 629 mmHg 43%
03:00 +10°C° 0 mm 3 m/s 629 mmHg 42%
04:00 +10°C° 0 mm 3 m/s 629 mmHg 45%
05:00 +11°C° 0 mm 3 m/s 630 mmHg 48%
06:00 +12°C° 0 mm 3 m/s 630 mmHg 50%
07:00 +16°C° 0 mm 2 m/s 631 mmHg 44%
08:00 +18°C° 0 mm 2 m/s 631 mmHg 38%
09:00 +22°C° 0 mm 1 m/s 632 mmHg 32%
10:00 +21°C° 0 mm 2 m/s 632 mmHg 31%
11:00 +23°C° 0 mm 2 m/s 633 mmHg 30%
12:00 +24°C° 0 mm 2 m/s 633 mmHg 29%
13:00 +24°C° 0 mm 2 m/s 633 mmHg 31%
14:00 +24°C° 0 mm 2 m/s 633 mmHg 32%
15:00 +23°C° 0 mm 2 m/s 632 mmHg 34%
16:00 +21°C° 0 mm 2 m/s 632 mmHg 42%
17:00 +20°C° 0 mm 2 m/s 632 mmHg 51%
18:00 +20°C° 0 mm 1 m/s 632 mmHg 59%
19:00 +18°C° 0 mm 1 m/s 632 mmHg 58%
20:00 +16°C° 0 mm 2 m/s 632 mmHg 57%
21:00 +14°C° 0 mm 2 m/s 632 mmHg 56%
22:00 +14°C° 0 mm 2 m/s 631 mmHg 54%
23:00 +14°C° 0 mm 2 m/s 631 mmHg 52%

Demain, 14 Mai, Vendredi

Heure Température Précipitation Vent Pression Humidité
00:00 +13°C° 0 mm 2 m/s 631 mmHg 49%
01:00 +13°C° 0 mm 2 m/s 631 mmHg 47%
02:00 +12°C° 0 mm 2 m/s 631 mmHg 45%
03:00 +12°C° 0 mm 2 m/s 631 mmHg 43%
04:00 +13°C° 0 mm 2 m/s 631 mmHg 44%
05:00 +13°C° 0 mm 2 m/s 631 mmHg 46%
06:00 +14°C° 0 mm 2 m/s 632 mmHg 48%
07:00 +16°C° 0 mm 2 m/s 632 mmHg 42%
08:00 +19°C° 0 mm 2 m/s 633 mmHg 36%
09:00 +21°C° 0 mm 2 m/s 633 mmHg 31%
10:00 +23°C° 0 mm 2 m/s 633 mmHg 31%
11:00 +22°C° 0 mm 3 m/s 633 mmHg 31%
12:00 +24°C° 0 mm 3 m/s 634 mmHg 32%
13:00 +22°C° 0.1 mm 4 m/s 633 mmHg 36%
14:00 +22°C° 0.1 mm 4 m/s 633 mmHg 40%
15:00 +21°C° 0.1 mm 4 m/s 633 mmHg 44%
16:00 +19°C° 0.4 mm 4 m/s 633 mmHg 52%
17:00 +17°C° 0.4 mm 3 m/s 632 mmHg 59%
18:00 +15°C° 0.4 mm 2 m/s 632 mmHg 67%
19:00 +15°C° 0 mm 2 m/s 632 mmHg 66%
20:00 +14°C° 0 mm 2 m/s 632 mmHg 66%
21:00 +13°C° 0 mm 2 m/s 632 mmHg 65%
22:00 +13°C° 0 mm 2 m/s 631 mmHg 65%
23:00 +13°C° 0 mm 2 m/s 631 mmHg 65%

Après-demain, 15 Mai, Samedi

Heure Température Précipitation Vent Pression Humidité
00:00 +12°C° 0 mm 2 m/s 631 mmHg 65%
01:00 +12°C° 0 mm 2 m/s 630 mmHg 65%
02:00 +12°C° 0 mm 2 m/s 630 mmHg 65%
03:00 +10°C° 0 mm 3 m/s 630 mmHg 65%
04:00 +12°C° 0 mm 2 m/s 630 mmHg 64%
05:00 +13°C° 0 mm 2 m/s 631 mmHg 63%
06:00 +14°C° 0 mm 2 m/s 631 mmHg 61%
07:00 +16°C° 0 mm 2 m/s 631 mmHg 55%
08:00 +18°C° 0 mm 2 m/s 632 mmHg 49%
09:00 +20°C° 0 mm 2 m/s 632 mmHg 43%
10:00 +20°C° 0 mm 2 m/s 632 mmHg 41%
11:00 +21°C° 0 mm 3 m/s 633 mmHg 39%
12:00 +22°C° 0 mm 3 m/s 633 mmHg 38%
13:00 +21°C° 0.1 mm 3 m/s 633 mmHg 38%
14:00 +21°C° 0.1 mm 3 m/s 632 mmHg 38%
15:00 +21°C° 0.1 mm 3 m/s 632 mmHg 39%
16:00 +20°C° 0.1 mm 3 m/s 632 mmHg 44%
17:00 +18°C° 0.1 mm 2 m/s 632 mmHg 50%
18:00 +17°C° 0.1 mm 2 m/s 631 mmHg 55%
19:00 +16°C° 0 mm 2 m/s 631 mmHg 56%
20:00 +14°C° 0 mm 2 m/s 631 mmHg 57%
21:00 +13°C° 0 mm 2 m/s 631 mmHg 58%
22:00 +12°C° 0 mm 2 m/s 630 mmHg 59%
23:00 +12°C° 0 mm 2 m/s 630 mmHg 59%

16 Mai, Dimanche

Heure Température Précipitation Vent Pression Humidité
00:00 +12°C° 0 mm 2 m/s 630 mmHg 60%
01:00 +12°C° 0 mm 2 m/s 629 mmHg 61%
02:00 +10°C° 0 mm 2 m/s 629 mmHg 63%
03:00 +10°C° 0 mm 2 m/s 629 mmHg 64%
04:00 +12°C° 0 mm 2 m/s 629 mmHg 63%
05:00 +13°C° 0 mm 2 m/s 629 mmHg 62%
06:00 +14°C° 0 mm 2 m/s 630 mmHg 61%
07:00 +15°C° 0 mm 2 m/s 630 mmHg 54%
08:00 +17°C° 0 mm 2 m/s 630 mmHg 47%
09:00 +19°C° 0 mm 2 m/s 631 mmHg 40%
10:00 +20°C° 0 mm 3 m/s 630 mmHg 38%
11:00 +21°C° 0 mm 3 m/s 630 mmHg 36%
12:00 +22°C° 0 mm 4 m/s 630 mmHg 35%
13:00 +22°C° 0 mm 4 m/s 630 mmHg 36%
14:00 +22°C° 0 mm 4 m/s 630 mmHg 38%
15:00 +21°C° 0 mm 4 m/s 629 mmHg 39%
16:00 +20°C° 0 mm 4 m/s 629 mmHg 46%
17:00 +19°C° 0 mm 3 m/s 629 mmHg 52%
18:00 +18°C° 0 mm 2 m/s 628 mmHg 58%
19:00 +16°C° 0 mm 2 m/s 628 mmHg 57%
20:00 +14°C° 0 mm 3 m/s 628 mmHg 57%
21:00 +12°C° 0 mm 3 m/s 627 mmHg 57%
22:00 +12°C° 0 mm 3 m/s 627 mmHg 53%
23:00 +11°C° 0 mm 3 m/s 627 mmHg 49%

17 Mai, Lundi

Heure Température Précipitation Vent Pression Humidité
00:00 +11°C° 0 mm 3 m/s 627 mmHg 45%
01:00 +11°C° 0 mm 3 m/s 626 mmHg 42%
02:00 +10°C° 0 mm 3 m/s 626 mmHg 40%
03:00 +10°C° 0 mm 3 m/s 626 mmHg 37%
04:00 +11°C° 0 mm 3 m/s 626 mmHg 40%
05:00 +13°C° 0 mm 2 m/s 626 mmHg 43%
06:00 +14°C° 0 mm 2 m/s 627 mmHg 46%
07:00 +17°C° 0 mm 2 m/s 627 mmHg 41%
08:00 +20°C° 0 mm 1 m/s 627 mmHg 36%
09:00 +22°C° 0 mm 1 m/s 628 mmHg 31%
10:00 +23°C° 0 mm 1 m/s 628 mmHg 31%
11:00 +24°C° 0 mm 2 m/s 628 mmHg 31%
12:00 +25°C° 0 mm 2 m/s 628 mmHg 30%
13:00 +25°C° 0 mm 2 m/s 628 mmHg 31%
14:00 +25°C° 0 mm 2 m/s 628 mmHg 31%
15:00 +25°C° 0 mm 2 m/s 628 mmHg 32%
16:00 +24°C° 0 mm 2 m/s 628 mmHg 39%
17:00 +23°C° 0 mm 1 m/s 627 mmHg 45%
18:00 +21°C° 0 mm 1 m/s 627 mmHg 52%
19:00 +20°C° 0 mm 1 m/s 627 mmHg 50%
20:00 +17°C° 0 mm 2 m/s 627 mmHg 48%
21:00 +16°C° 0 mm 3 m/s 627 mmHg 45%
22:00 +15°C° 0 mm 2 m/s 627 mmHg 45%
23:00 +15°C° 0 mm 2 m/s 627 mmHg 45%

18 Mai, Mardi

Heure Température Précipitation Vent Pression Humidité
00:00 +15°C° 0 mm 2 m/s 627 mmHg 46%
01:00 +14°C° 0 mm 2 m/s 627 mmHg 46%
02:00 +14°C° 0 mm 1 m/s 627 mmHg 47%
03:00 +13°C° 0 mm 1 m/s 626 mmHg 48%
04:00 +14°C° 0 mm 1 m/s 627 mmHg 50%
05:00 +15°C° 0 mm 1 m/s 628 mmHg 52%
06:00 +14°C° 0 mm 0 m/s 628 mmHg 54%
07:00 +18°C° 0 mm 1 m/s 628 mmHg 54%
08:00 +18°C° 0 mm 2 m/s 629 mmHg 54%
09:00 +19°C° 0 mm 2 m/s 629 mmHg 54%
10:00 +18°C° 1.9 mm 2 m/s 629 mmHg 60%
11:00 +17°C° 1.9 mm 2 m/s 629 mmHg 66%
12:00 +16°C° 1.9 mm 2 m/s 629 mmHg 72%
13:00 +16°C° 1.7 mm 2 m/s 629 mmHg 72%
14:00 +15°C° 1.7 mm 2 m/s 629 mmHg 72%
15:00 +15°C° 1.7 mm 1 m/s 629 mmHg 73%
16:00 +15°C° 0.5 mm 1 m/s 630 mmHg 76%
17:00 +14°C° 0.5 mm 1 m/s 630 mmHg 79%
18:00 +14°C° 0.5 mm 1 m/s 630 mmHg 82%
19:00 +13°C° 0.7 mm 1 m/s 630 mmHg 83%
20:00 +13°C° 0.7 mm 1 m/s 630 mmHg 83%
21:00 +12°C° 0.7 mm 1 m/s 631 mmHg 84%
22:00 +12°C° 0.2 mm 1 m/s 630 mmHg 82%
23:00 +12°C° 0.2 mm 1 m/s 630 mmHg 81%
Voir plus

Nous avons besoin de votre consentement

Meteoprog et ses fournisseurs de services peuvent stocker et accéder à des données personnelles telles que des cookies, des identifiants d'appareils ou d'autres technologies similaires sur votre appareil et traiter ces données pour personnaliser le contenu et les publicités, ainsi que pour fournir des fonctionnalités de médias sociaux et analyser le trafic.

  • Stocker et/ou accéder à des informations sur votre appareil

    Des cookies, des identifiants d'appareils ou d'autres informations peuvent être stockés ou accessibles sur votre appareil aux fins indiquées ci-dessus.

  • Annonces et contenus personnalisés, mesure des annonces et des contenus, connaissance de l'audience et développement de produits

    Les annonces et le contenu peuvent être personnalisés en fonction d'un profil. D'autres données peuvent être ajoutées pour mieux personnaliser les annonces et le contenu. Les performances des publicités et du contenu peuvent être mesurées. Il est possible d'obtenir des informations sur le public qui a vu les publicités et le contenu. Ces données peuvent être utilisées pour développer ou améliorer l'expérience de l'utilisateur, les systèmes et les logiciels.

En cliquant sur "J'accepte", vous autorisez l'utilisation de cookies, des identifiants d'appareils, des balises web ou d'autres technologies similaires. Vos paramètres peuvent être modifiés dans le navigateur de votre appareil.

Dans certains cas, des intérêts légitimes peuvent être invoqués plutôt qu'un consentement. Vous pouvez en savoir plus à ce sujet dans notre Politique de confidentialité et de cookies.